WAT125 KJAX-KSSI

Flight info

Callsign WAT125
Flight time 0h 14m
Altitude 3500
Route NORTH
Aircraft L18/L-SADE1E2E3GHIJ3J5M1P2RWXY/LB2D1

Departure

Time 2026-05-06 18:24
Airport Jacksonville International Airport (KJAX)

Arrival

Time 2026-05-06 18:39
Airport St Simons Island Airport (KSSI)
Time Latitude Longitude Altitude Speed Heading
2026-05-06 14:30 30.49502 -81.67937 23 ft 0 kts 11°
2026-05-06 18:20 30.49506 -81.67937 24 ft 3 kts 355°
2026-05-06 18:20 30.49549 -81.67945 24 ft 7 kts
2026-05-06 18:20 30.49601 -81.67935 24 ft 8 kts 10°
2026-05-06 18:20 30.49669 -81.67921 24 ft 10 kts
2026-05-06 18:21 30.49753 -81.67905 24 ft 13 kts 13°
2026-05-06 18:21 30.49847 -81.67903 24 ft 13 kts 345°
2026-05-06 18:21 30.49932 -81.67935 25 ft 12 kts 342°
2026-05-06 18:21 30.50016 -81.67966 25 ft 12 kts 340°
2026-05-06 18:22 30.50082 -81.67927 25 ft 13 kts 69°
2026-05-06 18:22 30.50114 -81.67815 25 ft 15 kts 70°
2026-05-06 18:22 30.50152 -81.67692 25 ft 16 kts 71°
2026-05-06 18:22 30.50193 -81.67578 25 ft 11 kts 42°
2026-05-06 18:23 30.50262 -81.67579 25 ft 11 kts 340°
2026-05-06 18:23 30.50336 -81.67619 25 ft 11 kts 299°
2026-05-06 18:23 30.50299 -81.67783 26 ft 50 kts 254°
2026-05-06 18:23 30.50103 -81.68356 125 ft 92 kts 249°
2026-05-06 18:24 30.49860 -81.69157 295 ft 120 kts 256°
2026-05-06 18:24 30.49796 -81.70134 625 ft 125 kts 290°
2026-05-06 18:24 30.50413 -81.70840 878 ft 134 kts 348°
2026-05-06 18:24 30.51325 -81.70602 1274 ft 141 kts 26°
2026-05-06 18:25 30.52173 -81.70039 1687 ft 143 kts 27°
2026-05-06 18:25 30.53054 -81.69486 2092 ft 146 kts 27°
2026-05-06 18:25 30.53973 -81.68936 2487 ft 150 kts 26°
2026-05-06 18:25 30.54981 -81.68536 2786 ft 159 kts
2026-05-06 18:26 30.56120 -81.68505 3082 ft 166 kts 359°
2026-05-06 18:26 30.57292 -81.68473 3371 ft 172 kts
2026-05-06 18:26 30.58529 -81.68439 3548 ft 183 kts
2026-05-06 18:26 30.59858 -81.68386 3533 ft 200 kts
2026-05-06 18:27 30.61273 -81.68092 3496 ft 213 kts 19°
2026-05-06 18:27 30.62429 -81.66991 3470 ft 221 kts 57°
2026-05-06 18:27 30.63033 -81.65349 3497 ft 223 kts 70°
2026-05-06 18:27 30.63592 -81.63665 3490 ft 225 kts 69°
2026-05-06 18:28 30.64201 -81.61970 3500 ft 226 kts 68°
2026-05-06 18:28 30.64817 -81.60289 3520 ft 228 kts 68°
2026-05-06 18:28 30.65449 -81.58593 3519 ft 230 kts 67°
2026-05-06 18:28 30.66099 -81.56884 3520 ft 231 kts 67°
2026-05-06 18:29 30.66762 -81.55177 3518 ft 232 kts 66°
2026-05-06 18:29 30.67434 -81.53484 3515 ft 232 kts 66°
2026-05-06 18:29 30.68118 -81.51794 3518 ft 232 kts 65°
2026-05-06 18:29 30.68806 -81.50078 3520 ft 232 kts 67°
2026-05-06 18:30 30.69471 -81.48389 3521 ft 233 kts 63°
2026-05-06 18:30 30.70449 -81.46865 3518 ft 234 kts 43°
2026-05-06 18:30 30.71825 -81.45873 3522 ft 233 kts 21°
2026-05-06 18:30 30.73360 -81.45333 3528 ft 233 kts 13°
2026-05-06 18:31 30.74937 -81.44880 3525 ft 233 kts 13°
2026-05-06 18:31 30.76533 -81.44425 3525 ft 233 kts 13°
2026-05-06 18:31 30.78108 -81.43989 3525 ft 233 kts 12°
2026-05-06 18:31 30.79694 -81.43578 3524 ft 233 kts
2026-05-06 18:32 30.81292 -81.43655 3509 ft 231 kts 341°
2026-05-06 18:32 30.82847 -81.44118 3527 ft 231 kts 353°
2026-05-06 18:32 30.84479 -81.44042 3522 ft 233 kts 10°
2026-05-06 18:32 30.85997 -81.43454 3561 ft 231 kts 23°
2026-05-06 18:33 30.87435 -81.42644 3647 ft 229 kts 26°
2026-05-06 18:33 30.88907 -81.41854 3496 ft 233 kts 22°
2026-05-06 18:33 30.90420 -81.41219 3410 ft 225 kts 16°
2026-05-06 18:33 30.91905 -81.40770 3221 ft 216 kts 10°
2026-05-06 18:34 30.93386 -81.40540 2996 ft 212 kts
2026-05-06 18:34 30.94838 -81.40587 2935 ft 205 kts 353°
2026-05-06 18:34 30.96208 -81.40809 2985 ft 196 kts 347°
2026-05-06 18:34 30.97556 -81.41155 2867 ft 200 kts 345°
2026-05-06 18:35 30.98925 -81.41575 2623 ft 208 kts 343°
2026-05-06 18:35 31.00349 -81.41934 2461 ft 208 kts 349°
2026-05-06 18:35 31.01777 -81.42136 2376 ft 204 kts 354°
2026-05-06 18:35 31.03187 -81.42218 2122 ft 203 kts 358°
2026-05-06 18:36 31.04488 -81.42211 1779 ft 205 kts
2026-05-06 18:36 31.05824 -81.42265 2016 ft 165 kts 351°
2026-05-06 18:36 31.06863 -81.42542 2280 ft 153 kts 348°
2026-05-06 18:36 31.07910 -81.42585 1945 ft 149 kts
2026-05-06 18:37 31.08950 -81.42606 1577 ft 152 kts 360°
2026-05-06 18:37 31.10001 -81.42544 1196 ft 152 kts
2026-05-06 18:37 31.11027 -81.42310 954 ft 150 kts 15°
2026-05-06 18:37 31.12044 -81.41950 712 ft 153 kts 21°
2026-05-06 18:38 31.12961 -81.41293 563 ft 152 kts 46°
2026-05-06 18:38 31.13658 -81.40640 446 ft 121 kts 36°
2026-05-06 18:38 31.14323 -81.40115 136 ft 106 kts 43°
2026-05-06 18:38 31.14872 -81.39640 17 ft 83 kts 40°
2026-05-06 18:39 31.15254 -81.39349 19 ft 49 kts 355°
2026-05-06 18:39 31.15457 -81.39354 19 ft 5 kts 179°
2026-05-06 18:39 31.15447 -81.39352 19 ft 5 kts 141°
2026-05-06 18:40 31.15346 -81.39200 19 ft 14 kts 103°
2026-05-06 18:40 31.15312 -81.39082 19 ft 13 kts 104°
2026-05-06 18:40 31.15374 -81.39002 19 ft 16 kts 39°
2026-05-06 18:40 31.15473 -81.38924 19 ft 18 kts 33°
2026-05-06 18:41 31.15554 -81.38830 19 ft 13 kts 73°
2026-05-06 18:41 31.15543 -81.38761 19 ft 6 kts 149°
2026-05-06 18:41 31.15503 -81.38716 19 ft 9 kts 119°
2026-05-06 18:41 31.15488 -81.38692 20 ft 0 kts 152°